This is the latest recevied weather packets stored in our database for station/object K1KOF. If no packets are shown the sender has not sent any weather packets the latest 10 day(s).
| Time | Temp. | Humidity | Pressure | Rain* | Wind** | Luminosity | Snow |
|---|---|---|---|---|---|---|---|
| 1777822181 | 16.11° C | 56% | 1031.2 hPa | 0 mm | - | 601 W/m² | - |
| 1777821878 | 16.11° C | 65% | 1031.3 hPa | 0 mm | - | 577 W/m² | - |
| 1777821576 | 15.56° C | 60% | 1031.3 hPa | 0 mm | - | 517 W/m² | - |
| 1777821274 | 16.67° C | 60% | 1031.2 hPa | 0 mm | - | 554 W/m² | - |
| 1777820971 | 16.11° C | 62% | 1031.3 hPa | 0 mm | - | 569 W/m² | - |
| 1777820667 | 16.67° C | 60% | 1031.1 hPa | 0 mm | - | 643 W/m² | - |
| 1777820363 | 16.67° C | 63% | 1031.2 hPa | 0 mm | - | 628 W/m² | - |
| 1777820061 | 16.11° C | 67% | 1031.1 hPa | 0 mm | - | 483 W/m² | - |
| 1777819758 | 15° C | 63% | 1031.2 hPa | 0 mm | - | 428 W/m² | - |
| 1777819456 | 15.56° C | 65% | 1031.1 hPa | 0 mm | - | 657 W/m² | - |
| 1777819154 | 16.11° C | 67% | 1031 hPa | 0 mm | - | 593 W/m² | - |
| 1777818850 | 15.56° C | 65% | 1031 hPa | 0 mm | - | 427 W/m² | - |
| 1777818546 | 15.56° C | 66% | 1031 hPa | 0 mm | - | 625 W/m² | - |
| 1777818244 | 15.56° C | 68% | 1031.2 hPa | 0 mm | - | 640 W/m² | - |
| 1777817939 | 15.56° C | 70% | 1031.1 hPa | 0 mm | - | 535 W/m² | - |
| 1777817637 | 15° C | 69% | 1030.9 hPa | 0 mm | - | 560 W/m² | - |
| 1777817333 | 15° C | 70% | 1031 hPa | 0 mm | - | 621 W/m² | - |
| 1777817031 | 15° C | 74% | 1030.7 hPa | 0 mm | - | 559 W/m² | - |
| 1777816726 | 14.44° C | 72% | 1030.9 hPa | 0 mm | - | 539 W/m² | - |
| 1777816424 | 15° C | 73% | 1030.8 hPa | 0 mm | - | 526 W/m² | - |
| 1777816122 | 14.44° C | 73% | 1030.6 hPa | 0 mm | - | 505 W/m² | - |
| 1777815819 | 13.89° C | 74% | 1030.6 hPa | 0 mm | - | 439 W/m² | - |
| 1777815516 | 13.89° C | 75% | 1030.7 hPa | 0 mm | - | 423 W/m² | - |
| 1777815214 | 13.33° C | 75% | 1030.6 hPa | 0 mm | - | 322 W/m² | - |
| 1777814910 | 13.89° C | 75% | 1030.6 hPa | 0 mm | - | 368 W/m² | - |
* Rain latest hour (hover to see other rain measurements)
** Current wind speed in m/s (hover to see current wind gust speed)